Tracking 19638 objects as of 19-May-2019
HD Live streaming from Space Station
objects crossing your sky now

EKRAN 2 DEB

Track EKRAN 2 DEB now!


NORAD ID: 29014
Int'l Code: 1977-092K
Perigee: 35,769.3 km
Apogee: 35,904.4 km
Inclination: 10.4 °
Period: 1,438.3 minutes
Semi major axis: 42207 km
RCS: 1 m2 (large)
Launch date: September 20, 1977
Source: Commonwealth of Independent States (former USSR) (CIS)
Launch site: TYURATAM MISSILE AND SPACE COMPLEX (TTMTR)

Note: This is SATELLITE DEBRIS
aabbcc
Your satellite tracking list
Your tracking list is empty




NASA's NSSDC Master Catalog

Two Line Element Set (TLE):
1 29014U 77092K   19137.59007685  .00000118  00000-0  00000+0 0  9991
2 29014  10.3851 308.0299 0016001 275.9449 263.8207  1.00118216 58657
Source of the keplerian elements: AFSPC